| time (UTC) | temp F | wind direction | speed MPH | gust MPH | rain 1hr in | rain 24hr in | rain mn in | humidity % | barometer mb |
| 20260506071143 | 57 | 238 | 0.0 | 0.0 | 0.00 | 0.00 | 0.00 | 89 | 1007.1 |
| 20260506070639 | 58 | 240 | 0.0 | 0.0 | 0.00 | 0.00 | 0.00 | 91 | 1006.9 |
| 20260506070136 | 58 | 239 | 0.0 | 0.0 | 0.00 | 0.00 | 0.00 | 91 | 1006.9 |
| 20260506062114 | 54 | 257 | 0.0 | 0.0 | 0.00 | 0.00 | 0.00 | 99 | 1007.4 |
| 20260506061609 | 53 | 245 | 0.0 | 1.0 | 0.00 | 0.00 | 0.00 | 99 | 1007.7 |
| 20260506061107 | 53 | 251 | 0.0 | 0.0 | 0.00 | 0.00 | 0.00 | 99 | 1008.0 |
| 20260506060606 | 53 | 243 | 0.0 | 0.0 | 0.00 | 0.00 | 0.00 | 99 | 1007.8 |
| 20260506051034 | 52 | 241 | 0.0 | 0.0 | 0.00 | 0.00 | 0.00 | 99 | 1008.4 |
| 20260506050532 | 52 | 241 | 0.0 | 0.0 | 0.00 | 0.00 | 0.00 | 99 | 1008.4 |
| 20260506045023 | 52 | 242 | 0.0 | 0.0 | 0.00 | 0.00 | 0.00 | 99 | 1008.8 |
| 20260506044521 | 53 | 233 | 0.0 | 0.0 | 0.00 | 0.00 | 0.00 | 99 | 1008.9 |
| 20260506044017 | 53 | 232 | 0.0 | 0.0 | 0.00 | 0.00 | 0.00 | 99 | 1008.9 |
| 20260506043514 | 52 | 237 | 0.0 | 0.0 | 0.00 | 0.00 | 0.00 | 99 | 1008.8 |
| 20260506043013 | 52 | 237 | 0.0 | 0.0 | 0.00 | 0.00 | 0.00 | 99 | 1008.8 |
| 20260506042512 | 51 | 237 | 0.0 | 0.0 | 0.00 | 0.00 | 0.00 | 99 | 1008.7 |
| 20260506042009 | 52 | 227 | 0.0 | 0.0 | 0.00 | 0.00 | 0.00 | 99 | 1008.6 |
| 20260506041508 | 52 | 236 | 0.0 | 0.0 | 0.00 | 0.00 | 0.00 | 99 | 1008.6 |
| 20260506041004 | 51 | 227 | 0.0 | 0.0 | 0.00 | 0.00 | 0.00 | 99 | 1008.7 |
| 20260506040502 | 51 | 245 | 0.0 | 0.0 | 0.00 | 0.00 | 0.00 | 99 | 1008.7 |
| 20260506035957 | 51 | 245 | 0.0 | 0.0 | 0.00 | 0.02 | 0.02 | 99 | 1008.9 |
| 20260506035455 | 51 | 245 | 0.0 | 0.0 | 0.00 | 0.02 | 0.02 | 99 | 1008.6 |
| 20260506034951 | 51 | 245 | 0.0 | 0.0 | 0.00 | 0.02 | 0.02 | 99 | 1008.7 |
| 20260506034449 | 51 | 245 | 0.0 | 0.0 | 0.00 | 0.02 | 0.02 | 99 | 1008.6 |
| 20260506033945 | 51 | 245 | 0.0 | 0.0 | 0.00 | 0.02 | 0.02 | 99 | 1008.5 |
| 20260506033443 | 52 | 233 | 0.0 | 0.0 | 0.00 | 0.02 | 0.02 | 99 | 1008.5 |
| 20260506032939 | 51 | 246 | 0.0 | 0.0 | 0.00 | 0.02 | 0.02 | 99 | 1008.4 |
| 20260506032437 | 51 | 248 | 0.0 | 0.0 | 0.00 | 0.02 | 0.02 | 99 | 1008.6 |
| 20260506031933 | 51 | 256 | 0.0 | 0.0 | 0.00 | 0.02 | 0.02 | 99 | 1008.5 |
| 20260506031431 | 52 | 237 | 0.0 | 0.0 | 0.00 | 0.02 | 0.02 | 99 | 1008.8 |
| 20260506030928 | 52 | 245 | 0.0 | 0.0 | 0.00 | 0.02 | 0.02 | 99 | 1008.6 |
| 20260506030426 | 52 | 252 | 0.0 | 0.0 | 0.00 | 0.02 | 0.02 | 99 | 1008.6 |
| 20260506025923 | 52 | 255 | 0.0 | 0.0 | 0.00 | 0.02 | 0.02 | 99 | 1008.5 |
| 20260506025420 | 51 | 238 | 0.0 | 0.0 | 0.00 | 0.02 | 0.02 | 99 | 1008.8 |
| 20260506024916 | 51 | 233 | 0.0 | 0.0 | 0.00 | 0.02 | 0.02 | 99 | 1008.8 |
| 20260506024413 | 52 | 232 | 0.0 | 0.0 | 0.00 | 0.02 | 0.02 | 99 | 1008.8 |
| 20260506023909 | 53 | 228 | 0.0 | 0.0 | 0.00 | 0.02 | 0.02 | 99 | 1008.8 |
| 20260506023406 | 53 | 228 | 0.0 | 0.0 | 0.00 | 0.02 | 0.02 | 99 | 1008.8 |
| 20260506022903 | 53 | 232 | 0.0 | 0.0 | 0.00 | 0.02 | 0.02 | 99 | 1008.7 |
| 20260506022400 | 53 | 230 | 0.0 | 0.0 | 0.00 | 0.02 | 0.02 | 99 | 1008.8 |
| 20260506021858 | 53 | 230 | 0.0 | 0.0 | 0.00 | 0.02 | 0.02 | 99 | 1008.8 |
| 20260506021355 | 53 | 230 | 0.0 | 0.0 | 0.00 | 0.02 | 0.02 | 99 | 1008.7 |
| 20260506020852 | 54 | 230 | 0.0 | 0.0 | 0.00 | 0.02 | 0.02 | 99 | 1008.7 |
| 20260506020350 | 54 | 230 | 0.0 | 0.0 | 0.00 | 0.02 | 0.02 | 99 | 1008.7 |
| 20260506015847 | 54 | 230 | 0.0 | 0.0 | 0.00 | 0.02 | 0.02 | 99 | 1008.9 |
| 20260506015345 | 54 | 229 | 0.0 | 0.0 | 0.00 | 0.02 | 0.02 | 99 | 1008.8 |
| 20260506014841 | 54 | 228 | 0.0 | 0.0 | 0.00 | 0.02 | 0.02 | 99 | 1008.6 |
| 20260506014338 | 55 | 228 | 0.0 | 0.0 | 0.00 | 0.02 | 0.02 | 99 | 1008.8 |
| 20260506013834 | 55 | 249 | 0.0 | 0.0 | 0.00 | 0.02 | 0.02 | 99 | 1008.5 |
| 20260506013332 | 55 | 250 | 0.0 | 0.0 | 0.00 | 0.02 | 0.02 | 99 | 1008.5 |
| 20260506012828 | 55 | 246 | 0.0 | 0.0 | 0.00 | 0.02 | 0.02 | 99 | 1008.5 |
| 20260506012326 | 56 | 246 | 0.0 | 0.0 | 0.00 | 0.02 | 0.02 | 99 | 1008.6 |
| 20260506011823 | 56 | 246 | 0.0 | 0.0 | 0.00 | 0.02 | 0.02 | 99 | 1008.5 |
| 20260506011319 | 57 | 246 | 0.0 | 0.0 | 0.00 | 0.02 | 0.02 | 99 | 1008.4 |
| 20260506010817 | 57 | 246 | 0.0 | 0.0 | 0.00 | 0.02 | 0.02 | 99 | 1008.4 |
| 20260506010314 | 58 | 245 | 0.0 | 0.0 | 0.00 | 0.02 | 0.02 | 99 | 1008.3 |
| 20260506005811 | 58 | 245 | 0.0 | 0.0 | 0.00 | 0.02 | 0.02 | 99 | 1008.4 |
| 20260506005308 | 58 | 246 | 0.0 | 0.0 | 0.00 | 0.02 | 0.02 | 99 | 1008.5 |
| 20260506004805 | 59 | 246 | 0.0 | 0.0 | 0.00 | 0.02 | 0.02 | 99 | 1008.2 |
| 20260506004302 | 59 | 246 | 0.0 | 0.0 | 0.00 | 0.02 | 0.02 | 98 | 1008.3 |
| 20260506003758 | 59 | 246 | 0.0 | 0.0 | 0.00 | 0.02 | 0.02 | 97 | 1008.2 |
| 20260506003254 | 59 | 245 | 0.0 | 0.0 | 0.00 | 0.02 | 0.02 | 97 | 1008.1 |
| 20260506002751 | 60 | 246 | 0.0 | 0.0 | 0.00 | 0.02 | 0.02 | 96 | 1008.0 |
| 20260506002247 | 61 | 245 | 0.0 | 0.0 | 0.00 | 0.02 | 0.02 | 96 | 1008.2 |
| 20260506001743 | 61 | 246 | 0.0 | 0.0 | 0.00 | 0.02 | 0.02 | 96 | 1008.1 |
| 20260506001240 | 62 | 245 | 0.0 | 0.0 | 0.00 | 0.02 | 0.02 | 95 | 1007.9 |
| 20260506000737 | 62 | 245 | 0.0 | 0.0 | 0.00 | 0.02 | 0.02 | 95 | 1007.9 |
| 20260506000235 | 62 | 245 | 0.0 | 0.0 | 0.00 | 0.02 | 0.02 | 94 | 1007.8 |
| 20260505235731 | 63 | 245 | 0.0 | 0.0 | 0.00 | 0.02 | 0.02 | 94 | 1007.8 |
| 20260505235229 | 63 | 245 | 0.0 | 0.0 | 0.00 | 0.02 | 0.02 | 93 | 1007.7 |
| 20260505234726 | 64 | 245 | 0.0 | 0.0 | 0.00 | 0.02 | 0.02 | 92 | 1007.8 |
| 20260505234223 | 64 | 245 | 0.0 | 0.0 | 0.00 | 0.02 | 0.02 | 92 | 1007.7 |
| 20260505233719 | 65 | 245 | 0.0 | 0.0 | 0.00 | 0.02 | 0.02 | 91 | 1007.7 |
| 20260505233218 | 65 | 245 | 0.0 | 0.0 | 0.00 | 0.02 | 0.02 | 90 | 1007.7 |
| 20260505232715 | 66 | 245 | 0.0 | 0.0 | 0.00 | 0.02 | 0.02 | 85 | 1007.4 |
| 20260505232212 | 66 | 245 | 0.0 | 0.0 | 0.00 | 0.02 | 0.02 | 82 | 1007.7 |
| 20260505231709 | 66 | 246 | 0.0 | 0.0 | 0.00 | 0.02 | 0.02 | 82 | 1007.9 |
| 20260505231208 | 66 | 246 | 0.0 | 0.0 | 0.00 | 0.02 | 0.02 | 84 | 1007.7 |
| 20260505230706 | 66 | 246 | 0.0 | 0.0 | 0.00 | 0.02 | 0.02 | 86 | 1007.8 |
| 20260505230202 | 66 | 246 | 0.0 | 0.0 | 0.00 | 0.02 | 0.02 | 85 | 1007.7 |
| 20260505225658 | 66 | 246 | 0.0 | 0.0 | 0.00 | 0.02 | 0.02 | 84 | 1007.7 |
| 20260505225155 | 66 | 247 | 0.0 | 0.0 | 0.00 | 0.02 | 0.02 | 84 | 1007.6 |
| 20260505224650 | 66 | 245 | 0.0 | 0.0 | 0.00 | 0.02 | 0.02 | 86 | 1007.6 |
| 20260505224149 | 66 | 244 | 0.0 | 0.0 | 0.00 | 0.02 | 0.02 | 86 | 1007.6 |
| 20260505223646 | 66 | 246 | 0.0 | 0.0 | 0.00 | 0.02 | 0.02 | 86 | 1007.7 |
| 20260505223142 | 66 | 257 | 1.0 | 2.0 | 0.00 | 0.02 | 0.02 | 86 | 1007.7 |
| 20260505222638 | 67 | 258 | 2.0 | 2.0 | 0.00 | 0.02 | 0.02 | 84 | 1007.7 |
| 20260505222134 | 67 | 254 | 1.0 | 2.0 | 0.00 | 0.02 | 0.02 | 84 | 1007.7 |
| 20260505221631 | 67 | 247 | 0.0 | 0.0 | 0.00 | 0.02 | 0.02 | 86 | 1007.8 |
| 20260505221128 | 66 | 257 | 2.0 | 2.0 | 0.00 | 0.02 | 0.02 | 85 | 1007.9 |
| 20260505220626 | 65 | 246 | 0.0 | 0.0 | 0.00 | 0.02 | 0.02 | 89 | 1007.6 |
| 20260505220123 | 65 | 246 | 1.0 | 1.0 | 0.00 | 0.02 | 0.02 | 88 | 1007.4 |
| 20260505215621 | 64 | 250 | 0.0 | 0.0 | 0.07 | 0.02 | 0.02 | 92 | 1007.7 |
| 20260505215119 | 64 | 239 | 0.0 | 0.0 | 0.07 | 0.02 | 0.02 | 91 | 1008.1 |
| 20260505214616 | 64 | 245 | 1.0 | 1.0 | 0.00 | 0.01 | 0.01 | 90 | 1008.1 |
| 20260505214113 | 64 | 237 | 0.0 | 0.0 | 0.00 | 0.01 | 0.01 | 90 | 1008.5 |
| 20260505213611 | 64 | 264 | 2.0 | 2.0 | 0.00 | 0.01 | 0.01 | 89 | 1008.2 |
| 20260505213107 | 65 | 239 | 0.0 | 0.0 | 0.00 | 0.01 | 0.01 | 91 | 1008.0 |
| 20260505212603 | 65 | 228 | 0.0 | 0.0 | 0.00 | 0.01 | 0.01 | 90 | 1007.9 |
| 20260505212102 | 65 | 235 | 0.0 | 0.0 | 0.00 | 0.01 | 0.01 | 90 | 1007.9 |
| 20260505211558 | 65 | 228 | 0.0 | 0.0 | 0.05 | 0.01 | 0.01 | 88 | 1007.9 |
| 20260505211055 | 67 | 229 | 2.0 | 3.0 | 0.05 | 0.01 | 0.01 | 83 | 1008.3 |
| 20260505210551 | 71 | 259 | 5.0 | 7.0 | 0.00 | 0.00 | 0.00 | 71 | 1008.1 |
| 20260505210049 | 73 | 274 | 8.0 | 14.0 | 0.00 | 0.00 | 0.00 | 55 | 1007.8 |
| 20260505205546 | 75 | 281 | 5.0 | 7.0 | 0.00 | 0.00 | 0.00 | 51 | 1007.3 |
| 20260505205044 | 75 | 282 | 5.0 | 7.0 | 0.00 | 0.00 | 0.00 | 49 | 1007.1 |
| 20260505204541 | 76 | 254 | 5.0 | 6.0 | 0.00 | 0.00 | 0.00 | 48 | 1006.9 |
| 20260505204038 | 76 | 282 | 4.0 | 4.0 | 0.00 | 0.00 | 0.00 | 48 | 1006.7 |
| 20260505203534 | 76 | 264 | 3.0 | 3.0 | 0.00 | 0.00 | 0.00 | 48 | 1006.6 |
| 20260505203032 | 77 | 256 | 3.0 | 3.0 | 0.00 | 0.00 | 0.00 | 49 | 1006.7 |
| 20260505202528 | 77 | 279 | 3.0 | 3.0 | 0.00 | 0.00 | 0.00 | 49 | 1006.9 |
| 20260505202024 | 77 | 235 | 4.0 | 4.0 | 0.00 | 0.00 | 0.00 | 49 | 1007.0 |
| 20260505201521 | 77 | 247 | 0.0 | 1.0 | 0.00 | 0.00 | 0.00 | 52 | 1007.0 |
| 20260505201018 | 77 | 257 | 5.0 | 7.0 | 0.00 | 0.00 | 0.00 | 49 | 1007.0 |
| 20260505200516 | 77 | 228 | 0.0 | 0.0 | 0.00 | 0.00 | 0.00 | 53 | 1007.2 |
| 20260505200013 | 77 | 281 | 2.0 | 4.0 | 0.00 | 0.00 | 0.00 | 49 | 1007.2 |
| 20260505195509 | 76 | 275 | 5.0 | 6.0 | 0.00 | 0.00 | 0.00 | 48 | 1007.2 |
| 20260505195007 | 75 | 229 | 4.0 | 7.0 | 0.00 | 0.00 | 0.00 | 48 | 1007.3 |
| 20260505194504 | 75 | 238 | 2.0 | 3.0 | 0.00 | 0.00 | 0.00 | 48 | 1007.4 |
| 20260505194004 | 76 | 233 | 0.0 | 0.0 | 0.00 | 0.00 | 0.00 | 47 | 1007.1 |
| 20260505193502 | 76 | 237 | 2.0 | 4.0 | 0.00 | 0.00 | 0.00 | 47 | 1007.2 |
| 20260505192959 | 76 | 229 | 1.0 | 1.0 | 0.00 | 0.00 | 0.00 | 48 | 1007.3 |
| 20260505192457 | 76 | 251 | 1.0 | 2.0 | 0.00 | 0.00 | 0.00 | 48 | 1007.2 |
| 20260505191954 | 77 | 240 | 2.0 | 3.0 | 0.00 | 0.00 | 0.00 | 46 | 1007.0 |
| 20260505191453 | 77 | 246 | 2.0 | 2.0 | 0.00 | 0.00 | 0.00 | 47 | 1007.1 |
| 20260505190949 | 78 | 243 | 1.0 | 2.0 | 0.00 | 0.00 | 0.00 | 47 | 1007.2 |
| 20260505190444 | 78 | 232 | 0.0 | 1.0 | 0.00 | 0.00 | 0.00 | 46 | 1007.1 |
| 20260505185940 | 78 | 289 | 6.0 | 7.0 | 0.00 | 0.00 | 0.00 | 45 | 1007.1 |
| 20260505185438 | 77 | 237 | 5.0 | 7.0 | 0.00 | 0.00 | 0.00 | 46 | 1007.3 |
| 20260505184934 | 77 | 263 | 2.0 | 2.0 | 0.00 | 0.00 | 0.00 | 45 | 1007.3 |
| 20260505184431 | 78 | 210 | 1.0 | 2.0 | 0.00 | 0.00 | 0.00 | 46 | 1007.2 |
| 20260505183927 | 78 | 209 | 3.0 | 7.0 | 0.00 | 0.00 | 0.00 | 45 | 1007.2 |
| 20260505183424 | 78 | 256 | 3.0 | 4.0 | 0.00 | 0.00 | 0.00 | 45 | 1007.0 |
| 20260505182921 | 79 | 183 | 1.0 | 2.0 | 0.00 | 0.00 | 0.00 | 45 | 1007.0 |
| 20260505182418 | 79 | 196 | 2.0 | 2.0 | 0.00 | 0.00 | 0.00 | 45 | 1007.4 |
| 20260505181914 | 78 | 267 | 6.0 | 7.0 | 0.00 | 0.00 | 0.00 | 43 | 1007.3 |
| 20260505181412 | 78 | 224 | 1.0 | 1.0 | 0.00 | 0.00 | 0.00 | 46 | 1007.6 |
| 20260505180908 | 79 | 239 | 3.0 | 7.0 | 0.00 | 0.00 | 0.00 | 43 | 1007.6 |
| 20260505180405 | 77 | 209 | 3.0 | 3.0 | 0.00 | 0.00 | 0.00 | 48 | 1007.6 |
| 20260505175901 | 77 | 237 | 7.0 | 14.0 | 0.00 | 0.00 | 0.00 | 44 | 1007.4 |
| 20260505175358 | 77 | 311 | 4.0 | 4.0 | 0.00 | 0.00 | 0.00 | 45 | 1007.9 |
| 20260505174854 | 77 | 214 | 1.0 | 2.0 | 0.00 | 0.00 | 0.00 | 47 | 1007.9 |
| 20260505174352 | 78 | 282 | 3.0 | 4.0 | 0.00 | 0.00 | 0.00 | 44 | 1008.0 |
| 20260505173848 | 79 | 260 | 9.0 | 11.0 | 0.00 | 0.00 | 0.00 | 42 | 1008.0 |
| 20260505173344 | 81 | 288 | 6.0 | 8.0 | 0.00 | 0.00 | 0.00 | 45 | 1007.9 |
| 20260505172841 | 82 | 237 | 1.0 | 1.0 | 0.00 | 0.00 | 0.00 | 45 | 1007.9 |
| 20260505172339 | 81 | 256 | 3.0 | 4.0 | 0.00 | 0.00 | 0.00 | 47 | 1007.8 |
| 20260505171839 | 82 | 246 | 2.0 | 2.0 | 0.00 | 0.00 | 0.00 | 46 | 1007.8 |
| 20260505171336 | 81 | 236 | 2.0 | 2.0 | 0.00 | 0.00 | 0.00 | 47 | 1007.9 |
| 20260505170832 | 80 | 247 | 2.0 | 2.0 | 0.00 | 0.00 | 0.00 | 49 | 1008.0 |
| 20260505170329 | 79 | 232 | 1.0 | 2.0 | 0.00 | 0.00 | 0.00 | 51 | 1007.9 |
| 20260505165825 | 78 | 237 | 3.0 | 4.0 | 0.00 | 0.00 | 0.00 | 52 | 1008.1 |
| 20260505165320 | 79 | 272 | 6.0 | 9.0 | 0.00 | 0.00 | 0.00 | 50 | 1008.3 |
| 20260505164816 | 79 | 245 | 2.0 | 2.0 | 0.00 | 0.00 | 0.00 | 51 | 1008.2 |
| 20260505164313 | 78 | 252 | 5.0 | 6.0 | 0.00 | 0.00 | 0.00 | 49 | 1008.0 |
| 20260505163812 | 76 | 250 | 1.0 | 2.0 | 0.00 | 0.00 | 0.00 | 52 | 1008.1 |
| 20260505163310 | 74 | 239 | 4.0 | 6.0 | 0.00 | 0.00 | 0.00 | 53 | 1008.4 |
| 20260505162808 | 75 | 259 | 8.0 | 10.0 | 0.00 | 0.00 | 0.00 | 52 | 1008.4 |
| 20260505162306 | 76 | 275 | 6.0 | 7.0 | 0.00 | 0.00 | 0.00 | 53 | 1008.5 |
| 20260505161802 | 75 | 267 | 4.0 | 6.0 | 0.00 | 0.00 | 0.00 | 54 | 1008.4 |
| 20260505161259 | 74 | 249 | 7.0 | 10.0 | 0.00 | 0.00 | 0.00 | 53 | 1008.6 |
| 20260505160756 | 76 | 277 | 8.0 | 11.0 | 0.00 | 0.00 | 0.00 | 53 | 1008.6 |
| 20260505160254 | 77 | 260 | 2.0 | 7.0 | 0.00 | 0.00 | 0.00 | 54 | 1008.7 |
| 20260505153232 | 75 | 263 | 6.0 | 8.0 | 0.00 | 0.00 | 0.00 | 57 | 1009.3 |
| 20260505152729 | 73 | 229 | 4.0 | 4.0 | 0.00 | 0.00 | 0.00 | 58 | 1009.2 |
| 20260505152226 | 74 | 256 | 4.0 | 6.0 | 0.00 | 0.00 | 0.00 | 58 | 1008.9 |
| 20260505151720 | 75 | 231 | 4.0 | 6.0 | 0.00 | 0.00 | 0.00 | 57 | 1008.9 |
| 20260505151218 | 73 | 238 | 1.0 | 1.0 | 0.00 | 0.00 | 0.00 | 61 | 1009.1 |
| 20260505150714 | 74 | 232 | 1.0 | 1.0 | 0.00 | 0.00 | 0.00 | 58 | 1008.9 |
| 20260505150212 | 75 | 246 | 1.0 | 1.0 | 0.00 | 0.00 | 0.00 | 60 | 1008.9 |
| 20260505140645 | 76 | 238 | 3.0 | 4.0 | 0.00 | 0.00 | 0.00 | 58 | 1008.8 |
| 20260505140142 | 76 | 231 | 1.0 | 2.0 | 0.00 | 0.00 | 0.00 | 59 | 1009.0 |
| 20260505130106 | 73 | 233 | 1.0 | 1.0 | 0.00 | 0.00 | 0.00 | 63 | 1009.1 |
| 20260505124555 | 70 | 226 | 2.0 | 3.0 | 0.00 | 0.00 | 0.00 | 67 | 1009.0 |
| 20260505124051 | 69 | 235 | 3.0 | 4.0 | 0.00 | 0.00 | 0.00 | 65 | 1009.2 |
| 20260505123548 | 68 | 226 | 0.0 | 1.0 | 0.00 | 0.00 | 0.00 | 68 | 1009.4 |
| 20260505123044 | 67 | 248 | 3.0 | 4.0 | 0.00 | 0.00 | 0.00 | 69 | 1009.0 |
| 20260505122541 | 66 | 264 | 2.0 | 3.0 | 0.00 | 0.00 | 0.00 | 72 | 1009.2 |
| 20260505122038 | 64 | 241 | 2.0 | 3.0 | 0.00 | 0.00 | 0.00 | 74 | 1009.2 |
| 20260505121534 | 64 | 232 | 1.0 | 1.0 | 0.00 | 0.00 | 0.00 | 75 | 1009.3 |
| 20260505121031 | 63 | 231 | 1.0 | 2.0 | 0.00 | 0.00 | 0.00 | 75 | 1009.6 |
| 20260505120528 | 62 | 252 | 1.0 | 1.0 | 0.00 | 0.00 | 0.00 | 77 | 1009.5 |
| 20260505120023 | 62 | 255 | 1.0 | 2.0 | 0.00 | 0.00 | 0.00 | 77 | 1009.4 |
| 20260505115518 | 62 | 243 | 0.0 | 0.0 | 0.00 | 0.00 | 0.00 | 78 | 1009.5 |
| 20260505115016 | 62 | 260 | 1.0 | 2.0 | 0.00 | 0.00 | 0.00 | 78 | 1009.4 |
| 20260505114513 | 62 | 246 | 1.0 | 1.0 | 0.00 | 0.00 | 0.00 | 77 | 1009.4 |
| 20260505114009 | 61 | 265 | 2.0 | 3.0 | 0.00 | 0.00 | 0.00 | 78 | 1009.5 |
| 20260505113506 | 61 | 242 | 0.0 | 0.0 | 0.00 | 0.00 | 0.00 | 80 | 1009.5 |
| 20260505113001 | 61 | 243 | 0.0 | 0.0 | 0.00 | 0.00 | 0.00 | 80 | 1009.4 |
| 20260505112458 | 62 | 224 | 0.0 | 0.0 | 0.00 | 0.00 | 0.00 | 81 | 1009.6 |
| 20260505111955 | 62 | 240 | 1.0 | 1.0 | 0.00 | 0.00 | 0.00 | 78 | 1009.5 |
| 20260505111449 | 62 | 230 | 3.0 | 4.0 | 0.00 | 0.00 | 0.00 | 77 | 1009.6 |
| 20260505110946 | 62 | 225 | 2.0 | 3.0 | 0.00 | 0.00 | 0.00 | 78 | 1009.5 |
| 20260505110443 | 61 | 242 | 0.0 | 1.0 | 0.00 | 0.00 | 0.00 | 78 | 1009.1 |
| 20260505101914 | 57 | 248 | 0.0 | 0.0 | 0.00 | 0.00 | 0.00 | 82 | 1008.5 |
| 20260505101409 | 55 | 248 | 1.0 | 1.0 | 0.00 | 0.00 | 0.00 | 84 | 1008.7 |
| 20260505100905 | 54 | 245 | 0.0 | 1.0 | 0.00 | 0.00 | 0.00 | 87 | 1008.6 |
| 20260505100402 | 53 | 251 | 0.0 | 0.0 | 0.00 | 0.00 | 0.00 | 88 | 1008.6 |
| 20260505095857 | 53 | 234 | 0.0 | 0.0 | 0.00 | 0.00 | 0.00 | 88 | 1008.9 |
| 20260505095355 | 53 | 227 | 0.0 | 0.0 | 0.00 | 0.00 | 0.00 | 88 | 1008.7 |
| 20260505094851 | 55 | 227 | 0.0 | 0.0 | 0.00 | 0.00 | 0.00 | 86 | 1008.6 |
| 20260505094348 | 55 | 239 | 0.0 | 0.0 | 0.00 | 0.00 | 0.00 | 84 | 1008.7 |
| 20260505093844 | 54 | 248 | 0.0 | 0.0 | 0.00 | 0.00 | 0.00 | 86 | 1008.6 |
| 20260505093341 | 53 | 245 | 0.0 | 0.0 | 0.00 | 0.00 | 0.00 | 88 | 1008.6 |
| 20260505092839 | 53 | 246 | 0.0 | 0.0 | 0.00 | 0.00 | 0.00 | 89 | 1008.5 |
| 20260505092337 | 54 | 239 | 0.0 | 0.0 | 0.00 | 0.00 | 0.00 | 87 | 1008.7 |
| 20260505091833 | 55 | 229 | 0.0 | 0.0 | 0.00 | 0.00 | 0.00 | 87 | 1008.7 |
| 20260505091332 | 55 | 244 | 0.0 | 0.0 | 0.00 | 0.00 | 0.00 | 84 | 1008.5 |
| 20260505090829 | 55 | 244 | 0.0 | 0.0 | 0.00 | 0.00 | 0.00 | 85 | 1008.3 |
| 20260505090328 | 55 | 243 | 0.0 | 0.0 | 0.00 | 0.00 | 0.00 | 85 | 1008.1 |
| 20260505085824 | 54 | 241 | 0.0 | 0.0 | 0.00 | 0.00 | 0.00 | 87 | 1008.3 |
| 20260505085322 | 53 | 241 | 0.0 | 0.0 | 0.00 | 0.00 | 0.00 | 88 | 1008.2 |
| 20260505084820 | 54 | 240 | 0.0 | 0.0 | 0.00 | 0.00 | 0.00 | 87 | 1008.2 |
| 20260505084318 | 54 | 249 | 0.0 | 0.0 | 0.00 | 0.00 | 0.00 | 87 | 1008.3 |
| 20260505083814 | 53 | 251 | 0.0 | 0.0 | 0.00 | 0.00 | 0.00 | 88 | 1008.3 |
| 20260505083311 | 53 | 252 | 0.0 | 0.0 | 0.00 | 0.00 | 0.00 | 88 | 1008.2 |
| 20260505082807 | 53 | 239 | 0.0 | 0.0 | 0.00 | 0.00 | 0.00 | 89 | 1008.2 |
| 20260505082305 | 54 | 239 | 0.0 | 0.0 | 0.00 | 0.00 | 0.00 | 88 | 1008.3 |
| 20260505081800 | 54 | 240 | 0.0 | 0.0 | 0.00 | 0.00 | 0.00 | 87 | 1008.5 |
| 20260505081257 | 55 | 239 | 0.0 | 0.0 | 0.00 | 0.00 | 0.00 | 86 | 1008.5 |
| 20260505080754 | 55 | 247 | 0.0 | 0.0 | 0.00 | 0.00 | 0.00 | 85 | 1008.7 |
| 20260505080250 | 54 | 244 | 0.0 | 0.0 | 0.00 | 0.00 | 0.00 | 87 | 1008.6 |
| 20260505075745 | 54 | 245 | 0.0 | 0.0 | 0.00 | 0.00 | 0.00 | 87 | 1008.4 |
| 20260505075243 | 54 | 244 | 0.0 | 0.0 | 0.00 | 0.00 | 0.00 | 86 | 1008.3 |
| 20260505074740 | 55 | 239 | 0.0 | 0.0 | 0.00 | 0.00 | 0.00 | 85 | 1008.2 |
| 20260505074237 | 55 | 238 | 0.0 | 0.0 | 0.00 | 0.00 | 0.00 | 85 | 1008.1 |
| 20260505073735 | 55 | 238 | 0.0 | 0.0 | 0.00 | 0.00 | 0.00 | 85 | 1007.9 |
| 20260505073233 | 55 | 241 | 0.0 | 0.0 | 0.00 | 0.00 | 0.00 | 86 | 1008.0 |
| 20260505072729 | 54 | 235 | 0.0 | 0.0 | 0.00 | 0.00 | 0.00 | 87 | 1007.9 |
| 20260505072225 | 53 | 246 | 0.0 | 0.0 | 0.00 | 0.00 | 0.00 | 88 | 1008.1 |
| 20260505071721 | 53 | 247 | 0.0 | 0.0 | 0.00 | 0.00 | 0.00 | 89 | 1007.9 |